Time,TemperatureF,DewpointF,PressureIn,WindDirection,WindDirectionDegrees,WindSpeedMPH,WindSpeedGustMPH,Humidity,HourlyPrecipIn,Conditions,Clouds,dailyrainin,SoftwareType,DateUTC
2013-05-27 00:03:00,65.0,55.0,-100.00,ENE,65,0.0,0.0,72,-99.99,,,-99.99,,2013-05-27 04:03:00,
2013-05-27 00:12:00,64.0,56.0,-100.00,ENE,65,0.0,1.0,73,-99.99,,,-99.99,,2013-05-27 04:12:00,
2013-05-27 00:23:00,64.0,56.0,-100.00,ENE,65,1.0,2.0,75,-99.99,,,-99.99,,2013-05-27 04:23:00,
2013-05-27 00:33:00,63.0,56.0,-100.00,NNE,20,0.0,2.0,76,-99.99,,,-99.99,,2013-05-27 04:33:00,
2013-05-27 00:43:00,63.0,56.0,-100.00,WSW,245,1.0,2.0,77,-99.99,,,-99.99,,2013-05-27 04:43:00,
2013-05-27 00:52:00,63.0,57.0,-100.00,SW,235,1.0,1.0,78,-99.99,,,-99.99,,2013-05-27 04:52:00,
2013-05-27 01:02:00,63.0,57.0,-100.00,West,280,0.0,3.0,79,-99.99,,,-99.99,,2013-05-27 05:02:00,
2013-05-27 01:12:00,63.0,57.0,-100.00,West,280,0.0,0.0,81,-99.99,,,-99.99,,2013-05-27 05:12:00,
2013-05-27 01:22:00,63.0,57.0,-100.00,West,280,0.0,0.0,82,-99.99,,,-99.99,,2013-05-27 05:22:00,
2013-05-27 01:32:00,63.0,58.0,-100.00,SW,230,0.0,1.0,84,-99.99,,,-99.99,,2013-05-27 05:32:00,
2013-05-27 01:42:00,63.0,58.0,-100.00,SW,230,0.0,1.0,84,-99.99,,,-99.99,,2013-05-27 05:42:00,
2013-05-27 01:52:00,62.0,58.0,-100.00,SW,225,0.0,1.0,85,-99.99,,,-99.99,,2013-05-27 05:52:00,
2013-05-27 02:02:00,62.0,58.0,-100.00,SW,225,0.0,1.0,87,-99.99,,,-99.99,,2013-05-27 06:02:00,
2013-05-27 02:11:00,62.0,58.0,-100.00,WSW,245,0.0,1.0,88,-99.99,,,-99.99,,2013-05-27 06:11:00,
2013-05-27 02:22:00,62.0,58.0,-100.00,WSW,245,0.0,1.0,88,-99.99,,,-99.99,,2013-05-27 06:22:00,
2013-05-27 02:32:00,61.0,58.0,-100.00,WSW,245,1.0,1.0,89,-99.99,,,-99.99,,2013-05-27 06:32:00,
2013-05-27 02:42:00,61.0,58.0,-100.00,SW,220,0.0,1.0,89,-99.99,,,-99.99,,2013-05-27 06:42:00,
2013-05-27 02:52:00,61.0,58.0,-100.00,NE,50,1.0,2.0,89,-99.99,,,-99.99,,2013-05-27 06:52:00,
2013-05-27 03:02:00,61.0,58.0,-100.00,WSW,255,0.0,1.0,89,-99.99,,,-99.99,,2013-05-27 07:02:00,
2013-05-27 03:11:00,61.0,58.0,-100.00,West,270,0.0,1.0,91,-99.99,,,-99.99,,2013-05-27 07:11:00,
2013-05-27 03:21:00,61.0,58.0,-100.00,SW,225,0.0,1.0,92,-99.99,,,-99.99,,2013-05-27 07:21:00,
2013-05-27 03:32:00,60.0,58.0,-100.00,South,190,0.0,0.0,94,-99.99,,,-99.99,,2013-05-27 07:32:00,
2013-05-27 03:42:00,60.0,58.0,-100.00,South,190,0.0,0.0,94,-99.99,,,-99.99,,2013-05-27 07:42:00,
2013-05-27 03:52:00,60.0,58.0,-100.00,ENE,75,1.0,2.0,95,-99.99,,,-99.99,,2013-05-27 07:52:00,
2013-05-27 04:02:00,59.0,58.0,-100.00,North,355,0.0,1.0,95,-99.99,,,-99.99,,2013-05-27 08:02:00,
2013-05-27 04:11:00,59.0,58.0,-100.00,WSW,245,1.0,1.0,96,-99.99,,,-99.99,,2013-05-27 08:11:00,
2013-05-27 04:22:00,60.0,59.0,-100.00,WSW,245,0.0,1.0,97,-99.99,,,-99.99,,2013-05-27 08:22:00,
2013-05-27 04:33:00,59.0,58.0,-100.00,WSW,245,0.0,1.0,98,-99.99,,,-99.99,,2013-05-27 08:33:00,
2013-05-27 04:42:00,59.0,59.0,-100.00,WSW,245,0.0,1.0,99,-99.99,,,-99.99,,2013-05-27 08:42:00,
2013-05-27 04:52:00,59.0,58.0,-100.00,West,270,0.0,1.0,99,-99.99,,,-99.99,,2013-05-27 08:52:00,
2013-05-27 05:02:00,59.0,58.0,-100.00,West,270,0.0,0.0,99,-99.99,,,-99.99,,2013-05-27 09:02:00,
2013-05-27 05:11:00,58.0,58.0,-100.00,SW,220,0.0,1.0,99,-99.99,,,-99.99,,2013-05-27 09:11:00,
2013-05-27 05:22:00,58.0,58.0,-100.00,WSW,240,0.0,1.0,99,-99.99,,,-99.99,,2013-05-27 09:22:00,
2013-05-27 05:33:00,58.0,58.0,-100.00,North,10,0.0,1.0,99,-99.99,,,-99.99,,2013-05-27 09:33:00,
2013-05-27 05:42:00,58.0,58.0,-100.00,East,90,0.0,1.0,99,-99.99,,,-99.99,,2013-05-27 09:42:00,
2013-05-27 05:53:00,58.0,57.0,-100.00,NNE,30,0.0,2.0,99,-99.99,,,-99.99,,2013-05-27 09:53:00,
2013-05-27 06:03:00,58.0,57.0,-100.00,ENE,65,0.0,1.0,99,-99.99,,,-99.99,,2013-05-27 10:03:00,
2013-05-27 06:12:00,58.0,57.0,-100.00,NE,55,0.0,1.0,99,-99.99,,,-99.99,,2013-05-27 10:12:00,
2013-05-27 06:23:00,57.0,57.0,-100.00,SW,235,1.0,1.0,99,-99.99,,,-99.99,,2013-05-27 10:23:00,
2013-05-27 06:32:00,58.0,57.0,-100.00,WSW,245,0.0,2.0,99,-99.99,,,-99.99,,2013-05-27 10:32:00,
2013-05-27 06:42:00,58.0,57.0,-100.00,WSW,245,0.0,2.0,99,-99.99,,,-99.99,,2013-05-27 10:42:00,
2013-05-27 06:52:00,58.0,57.0,-100.00,South,190,0.0,1.0,99,-99.99,,,-99.99,,2013-05-27 10:52:00,
2013-05-27 07:02:00,58.0,57.0,-100.00,South,190,0.0,1.0,99,-99.99,,,-99.99,,2013-05-27 11:02:00,
2013-05-27 07:11:00,57.0,57.0,-100.00,East,95,0.0,2.0,99,-99.99,,,-99.99,,2013-05-27 11:11:00,
2013-05-27 07:22:00,57.0,57.0,-100.00,NE,50,0.0,0.0,99,-99.99,,,-99.99,,2013-05-27 11:22:00,
2013-05-27 07:32:00,58.0,57.0,-100.00,ENE,75,1.0,2.0,99,-99.99,,,-99.99,,2013-05-27 11:32:00,
2013-05-27 07:42:00,58.0,58.0,-100.00,SW,215,0.0,1.0,99,-99.99,,,-99.99,,2013-05-27 11:42:00,
2013-05-27 07:52:00,59.0,58.0,-100.00,SW,220,0.0,1.0,99,-99.99,,,-99.99,,2013-05-27 11:52:00,
2013-05-27 08:01:00,59.0,59.0,-100.00,East,80,0.0,1.0,99,-99.99,,,-99.99,,2013-05-27 12:01:00,
2013-05-27 08:11:00,60.0,60.0,-100.00,West,265,0.0,0.0,99,-99.99,,,-99.99,,2013-05-27 12:11:00,
2013-05-27 08:22:00,60.0,60.0,-100.00,East,100,0.0,2.0,98,-99.99,,,-99.99,,2013-05-27 12:22:00,
2013-05-27 08:32:00,61.0,59.0,-100.00,NE,40,0.0,2.0,92,-99.99,,,-99.99,,2013-05-27 12:32:00,
2013-05-27 08:42:00,62.0,59.0,-100.00,ENE,60,1.0,2.0,88,-99.99,,,-99.99,,2013-05-27 12:42:00,
2013-05-27 08:52:00,63.0,58.0,-100.00,East,100,0.0,2.0,84,-99.99,,,-99.99,,2013-05-27 12:52:00,
2013-05-27 09:02:00,65.0,59.0,-100.00,SE,140,1.0,2.0,83,-99.99,,,-99.99,,2013-05-27 13:02:00,
2013-05-27 09:11:00,66.0,59.0,-100.00,NNE,25,1.0,1.0,78,-99.99,,,-99.99,,2013-05-27 13:11:00,
2013-05-27 09:22:00,67.0,57.0,-100.00,East,90,0.0,3.0,72,-99.99,,,-99.99,,2013-05-27 13:22:00,
2013-05-27 09:32:00,68.0,58.0,-100.00,NNW,340,0.0,1.0,71,-99.99,,,-99.99,,2013-05-27 13:32:00,
2013-05-27 09:42:00,68.0,56.0,-100.00,SE,140,2.0,4.0,66,-99.99,,,-99.99,,2013-05-27 13:42:00,
2013-05-27 09:52:00,69.0,56.0,-100.00,SE,140,1.0,4.0,63,-99.99,,,-99.99,,2013-05-27 13:52:00,
2013-05-27 10:02:00,70.0,57.0,-100.00,South,180,1.0,3.0,63,-99.99,,,-99.99,,2013-05-27 14:02:00,
2013-05-27 10:11:00,70.0,57.0,-100.00,SW,235,1.0,4.0,62,-99.99,,,-99.99,,2013-05-27 14:11:00,
2013-05-27 10:22:00,71.0,58.0,-100.00,NE,40,0.0,2.0,62,-99.99,,,-99.99,,2013-05-27 14:22:00,
2013-05-27 10:32:00,72.0,57.0,-100.00,SE,145,2.0,4.0,60,-99.99,,,-99.99,,2013-05-27 14:32:00,
2013-05-27 10:42:00,73.0,58.0,-100.00,South,185,2.0,5.0,58,-99.99,,,-99.99,,2013-05-27 14:42:00,
2013-05-27 10:52:00,75.0,57.0,-100.00,South,175,4.0,6.0,53,-99.99,,,-99.99,,2013-05-27 14:52:00,
2013-05-27 11:02:00,76.0,57.0,-100.00,South,190,2.0,4.0,51,-99.99,,,-99.99,,2013-05-27 15:02:00,
2013-05-27 11:11:00,77.0,57.0,-100.00,West,275,1.0,8.0,49,-99.99,,,-99.99,,2013-05-27 15:11:00,
2013-05-27 11:22:00,78.0,57.0,-100.00,SSE,155,2.0,5.0,49,-99.99,,,-99.99,,2013-05-27 15:22:00,
2013-05-27 11:33:00,78.0,56.0,-100.00,SW,230,2.0,6.0,46,-99.99,,,-99.99,,2013-05-27 15:33:00,
2013-05-27 11:43:00,78.0,55.0,-100.00,SSW,195,5.0,9.0,45,-99.99,,,-99.99,,2013-05-27 15:43:00,
2013-05-27 11:53:00,78.0,55.0,-100.00,SW,215,4.0,10.0,44,-99.99,,,-99.99,,2013-05-27 15:53:00,
2013-05-27 12:03:00,80.0,55.0,-100.00,West,265,4.0,9.0,42,-99.99,,,-99.99,,2013-05-27 16:03:00,
2013-05-27 12:12:00,80.0,55.0,-100.00,West,270,5.0,10.0,42,-99.99,,,-99.99,,2013-05-27 16:12:00,
2013-05-27 12:23:00,81.0,56.0,-100.00,WNW,295,1.0,9.0,42,-99.99,,,-99.99,,2013-05-27 16:23:00,
2013-05-27 12:33:00,80.0,54.0,-100.00,West,270,4.0,9.0,40,-99.99,,,-99.99,,2013-05-27 16:33:00,
2013-05-27 12:42:00,80.0,54.0,-100.00,West,270,4.0,9.0,40,-99.99,,,-99.99,,2013-05-27 16:42:00,
2013-05-27 12:52:00,81.0,54.0,-100.00,WSW,250,6.0,13.0,40,-99.99,,,-99.99,,2013-05-27 16:52:00,
2013-05-27 13:02:00,80.0,54.0,-100.00,South,170,4.0,9.0,40,-99.99,,,-99.99,,2013-05-27 17:02:00,
2013-05-27 13:12:00,81.0,55.0,-100.00,SE,130,2.0,9.0,41,-99.99,,,-99.99,,2013-05-27 17:12:00,
2013-05-27 13:22:00,81.0,55.0,-100.00,NW,320,4.0,11.0,41,-99.99,,,-99.99,,2013-05-27 17:22:00,
2013-05-27 13:32:00,83.0,56.0,-100.00,ESE,110,0.0,7.0,40,-99.99,,,-99.99,,2013-05-27 17:32:00,
2013-05-27 13:43:00,83.0,56.0,-100.00,SSW,210,3.0,7.0,40,-99.99,,,-99.99,,2013-05-27 17:43:00,
2013-05-27 13:52:00,82.0,55.0,-100.00,SW,235,7.0,10.0,40,-99.99,,,-99.99,,2013-05-27 17:52:00,
2013-05-27 14:02:00,83.0,56.0,-100.00,WNW,300,3.0,9.0,40,-99.99,,,-99.99,,2013-05-27 18:02:00,
2013-05-27 14:11:00,83.0,56.0,-100.00,SSE,150,4.0,8.0,40,-99.99,,,-99.99,,2013-05-27 18:11:00,
2013-05-27 14:22:00,82.0,56.0,-100.00,WSW,240,5.0,11.0,41,-99.99,,,-99.99,,2013-05-27 18:22:00,
2013-05-27 14:32:00,83.0,56.0,-100.00,ENE,70,1.0,6.0,40,-99.99,,,-99.99,,2013-05-27 18:32:00,
2013-05-27 14:42:00,83.0,57.0,-100.00,SSE,150,7.0,14.0,41,-99.99,,,-99.99,,2013-05-27 18:42:00,
2013-05-27 14:52:00,83.0,57.0,-100.00,West,270,5.0,13.0,42,-99.99,,,-99.99,,2013-05-27 18:52:00,
2013-05-27 15:01:00,83.0,58.0,-100.00,ENE,65,1.0,11.0,42,-99.99,,,-99.99,,2013-05-27 19:01:00,
2013-05-27 15:11:00,84.0,58.0,-100.00,NNW,335,1.0,9.0,41,-99.99,,,-99.99,,2013-05-27 19:11:00,
2013-05-27 15:22:00,84.0,57.0,-100.00,SW,235,4.0,9.0,41,-99.99,,,-99.99,,2013-05-27 19:22:00,
2013-05-27 15:32:00,85.0,58.0,-100.00,SW,225,3.0,11.0,40,-99.99,,,-99.99,,2013-05-27 19:32:00,
2013-05-27 15:42:00,85.0,58.0,-100.00,SW,225,3.0,11.0,40,-99.99,,,-99.99,,2013-05-27 19:42:00,
2013-05-27 15:52:00,85.0,58.0,-100.00,SW,215,5.0,12.0,40,-99.99,,,-99.99,,2013-05-27 19:52:00,
2013-05-27 16:02:00,86.0,59.0,-100.00,North,5,0.0,10.0,40,-99.99,,,-99.99,,2013-05-27 20:02:00,
2013-05-27 16:11:00,85.0,58.0,-100.00,West,265,6.0,11.0,40,-99.99,,,-99.99,,2013-05-27 20:11:00,
2013-05-27 16:22:00,85.0,58.0,-100.00,West,275,4.0,13.0,40,-99.99,,,-99.99,,2013-05-27 20:22:00,
2013-05-27 16:32:00,86.0,58.0,-100.00,SW,220,6.0,9.0,39,-99.99,,,-99.99,,2013-05-27 20:32:00,
2013-05-27 16:42:00,84.0,57.0,-100.00,SW,215,7.0,13.0,40,-99.99,,,-99.99,,2013-05-27 20:42:00,
2013-05-27 16:52:00,84.0,57.0,-100.00,WSW,245,3.0,9.0,40,-99.99,,,-99.99,,2013-05-27 20:52:00,
2013-05-27 17:01:00,83.0,58.0,-100.00,SW,215,4.0,11.0,42,-99.99,,,-99.99,,2013-05-27 21:01:00,
2013-05-27 17:12:00,85.0,59.0,-100.00,WSW,240,4.0,11.0,41,-99.99,,,-99.99,,2013-05-27 21:12:00,
2013-05-27 17:22:00,84.0,58.0,-100.00,SW,230,5.0,11.0,41,-99.99,,,-99.99,,2013-05-27 21:22:00,
2013-05-27 17:33:00,83.0,58.0,-100.00,West,275,4.0,8.0,43,-99.99,,,-99.99,,2013-05-27 21:33:00,
2013-05-27 17:43:00,83.0,58.0,-100.00,West,275,4.0,8.0,43,-99.99,,,-99.99,,2013-05-27 21:43:00,
2013-05-27 17:53:00,83.0,58.0,-100.00,SW,215,4.0,11.0,43,-99.99,,,-99.99,,2013-05-27 21:53:00,
2013-05-27 18:02:00,83.0,58.0,-100.00,SW,215,4.0,11.0,43,-99.99,,,-99.99,,2013-05-27 22:02:00,
2013-05-27 18:13:00,83.0,58.0,-100.00,West,260,1.0,9.0,42,-99.99,,,-99.99,,2013-05-27 22:13:00,
2013-05-27 18:23:00,83.0,58.0,-100.00,WSW,240,2.0,9.0,44,-99.99,,,-99.99,,2013-05-27 22:23:00,
2013-05-27 18:33:00,83.0,59.0,-100.00,SW,235,5.0,10.0,44,-99.99,,,-99.99,,2013-05-27 22:33:00,
2013-05-27 18:42:00,83.0,59.0,-100.00,SW,235,5.0,10.0,44,-99.99,,,-99.99,,2013-05-27 22:42:00,
2013-05-27 18:52:00,83.0,59.0,-100.00,NW,315,6.0,11.0,44,-99.99,,,-99.99,,2013-05-27 22:52:00,
2013-05-27 19:02:00,82.0,58.0,-100.00,SW,230,2.0,14.0,45,-99.99,,,-99.99,,2013-05-27 23:02:00,
2013-05-27 19:12:00,81.0,58.0,-100.00,West,275,5.0,11.0,45,-99.99,,,-99.99,,2013-05-27 23:12:00,
2013-05-27 19:22:00,81.0,58.0,-100.00,SW,235,5.0,9.0,45,-99.99,,,-99.99,,2013-05-27 23:22:00,
2013-05-27 19:32:00,81.0,58.0,-100.00,SW,220,4.0,11.0,45,-99.99,,,-99.99,,2013-05-27 23:32:00,
2013-05-27 19:42:00,81.0,57.0,-100.00,SW,235,4.0,7.0,44,-99.99,,,-99.99,,2013-05-27 23:42:00,
2013-05-27 19:52:00,81.0,58.0,-100.00,SW,230,6.0,8.0,45,-99.99,,,-99.99,,2013-05-27 23:52:00,
2013-05-27 20:01:00,81.0,58.0,-100.00,SW,225,2.0,6.0,45,-99.99,,,-99.99,,2013-05-28 00:01:00,
2013-05-27 20:11:00,81.0,58.0,-100.00,SW,230,4.0,7.0,45,-99.99,,,-99.99,,2013-05-28 00:11:00,
2013-05-27 20:22:00,81.0,58.0,-100.00,SW,235,2.0,5.0,45,-99.99,,,-99.99,,2013-05-28 00:22:00,
2013-05-27 20:32:00,80.0,57.0,-100.00,SSW,205,2.0,6.0,46,-99.99,,,-99.99,,2013-05-28 00:32:00,
2013-05-27 20:42:00,80.0,57.0,-100.00,SSW,205,2.0,6.0,46,-99.99,,,-99.99,,2013-05-28 00:42:00,
2013-05-27 20:52:00,79.0,57.0,-100.00,SW,220,1.0,5.0,48,-99.99,,,-99.99,,2013-05-28 00:52:00,
2013-05-27 21:01:00,79.0,57.0,-100.00,South,185,1.0,4.0,48,-99.99,,,-99.99,,2013-05-28 01:01:00,
2013-05-27 21:11:00,78.0,58.0,-100.00,South,190,2.0,4.0,50,-99.99,,,-99.99,,2013-05-28 01:11:00,
2013-05-27 21:22:00,78.0,57.0,-100.00,South,185,2.0,4.0,50,-99.99,,,-99.99,,2013-05-28 01:22:00,
2013-05-27 21:32:00,76.0,59.0,-100.00,SSW,195,3.0,6.0,54,-99.99,,,-99.99,,2013-05-28 01:32:00,
2013-05-27 21:42:00,76.0,59.0,-100.00,SSW,195,3.0,6.0,54,-99.99,,,-99.99,,2013-05-28 01:42:00,
2013-05-27 21:52:00,75.0,60.0,-100.00,SSW,210,2.0,4.0,58,-99.99,,,-99.99,,2013-05-28 01:52:00,
2013-05-27 22:02:00,75.0,60.0,-100.00,SSW,210,2.0,4.0,58,-99.99,,,-99.99,,2013-05-28 02:02:00,
2013-05-27 22:11:00,75.0,60.0,-100.00,SSW,195,1.0,2.0,59,-99.99,,,-99.99,,2013-05-28 02:11:00,
2013-05-27 22:22:00,74.0,60.0,-100.00,SE,135,1.0,4.0,61,-99.99,,,-99.99,,2013-05-28 02:22:00,
2013-05-27 22:32:00,74.0,61.0,-100.00,SSE,155,0.0,3.0,62,-99.99,,,-99.99,,2013-05-28 02:32:00,
2013-05-27 22:42:00,74.0,61.0,-100.00,SSE,155,1.0,2.0,63,-99.99,,,-99.99,,2013-05-28 02:42:00,
2013-05-27 22:52:00,74.0,61.0,-100.00,SW,225,1.0,2.0,64,-99.99,,,-99.99,,2013-05-28 02:52:00,
2013-05-27 23:01:00,74.0,61.0,-100.00,SW,225,1.0,2.0,64,-99.99,,,-99.99,,2013-05-28 03:01:00,
2013-05-27 23:11:00,74.0,62.0,-100.00,South,185,2.0,3.0,65,-99.99,,,-99.99,,2013-05-28 03:11:00,
2013-05-27 23:22:00,74.0,62.0,-100.00,SSE,165,1.0,4.0,66,-99.99,,,-99.99,,2013-05-28 03:22:00,
2013-05-27 23:33:00,73.0,62.0,-100.00,SSW,195,1.0,4.0,67,-99.99,,,-99.99,,2013-05-28 03:33:00,
2013-05-27 23:43:00,73.0,62.0,-100.00,SSE,160,0.0,4.0,68,-99.99,,,-99.99,,2013-05-28 03:43:00,
2013-05-27 23:53:00,73.0,62.0,-100.00,SSW,195,2.0,4.0,68,-99.99,,,-99.99,,2013-05-28 03:53:00,